Content
SEND FEEDBACK

Daily
Averages
Monthly
Summary
United Kingdom

WINCHESTER, ENGLAND


Home > Europe > United Kingdom > England
Elevation: 297 feet     Latitude: 51 09N     Longitude: 001 34W

WEATHER
 
SELECT A DAY
Number of Records: 59,394;   Date Range: 10/20/98 - 8/18/14
 
SHARE

PRINT THIS DATA

[ ← Previous Day ]
WEATHER ALMANAC - FEBRUARY 10, 2013
[ Next Day → ]
[ °C ]   °F
Weather ElementAverageHighLow
Temperature40.9 °F42.8 °F (9:50 am)39 °F (2:50 am)
Dewpoint38.8 °F41 °F (8:50 am)35.6 °F (11:50 pm)
Humidity91.9 %100 % (2:50 am)81 % (11:50 pm)
Barometer29.39 in29.77 in (1:50 am)29.18 in (4:50 pm)
Wind Speed11.8 mph23 mph (4:50 pm)
Weather ElementAverage
Visibility5 mi
Wind DirectionSSE (168.7 °)

Weather ElementTotal
Precipitation---
Heating Degree Days24.1 (Base 65)
Averaged from 31 records on February 10, 2013
WEATHER CONDITIONS BREAKOUT
WIND DIRECTION BREAKOUT
WEATHER BY HOUR - FEBRUARY 10, 2013
[ °C ]   °F
Local TimeTemperatureDewpointHumidityBarometerVisibilityWind DirectionWind SpeedGust SpeedPrecipitationEventsConditions
1:50 AM39.2 °F37.4 °F93 %29.77 in0.2 miSouth (190°)5.8 mph
2:50 AM39.0 °F38.0 °F96 %29.76 in0.0 miSouth (170°)3.5 mph
2:50 AM39.2 °F39.2 °F100 %29.74 in0.2 miSouth (170°)3.5 mph
3:50 AM39.2 °F39.2 °F100 %29.68 in0.1 miSSE (160°)4.6 mph
4:50 AM41.0 °F39.2 °F93 %29.65 inSSE (160°)8.1 mphMostly Cloudy
5:50 AM40.0 °F39.0 °F97 %29.64 in3.0 miSSE (160°)9.2 mphOvercast
5:50 AM41.0 °F39.2 °F93 %29.62 in3.1 miSSE (160°)9.2 mphOvercast
6:50 AM41.0 °F39.2 °F93 %29.56 in2.8 miSE (140°)9.2 mphOvercast
7:50 AM41.0 °F39.2 °F93 %29.53 in4.3 miSE (130°)8.1 mphMostly Cloudy
8:50 AM42.0 °F40.0 °F90 %29.52 in4.0 miSE (140°)11.5 mphMostly Cloudy
8:50 AM41.0 °F41.0 °F100 %29.50 in3.7 miSE (140°)11.5 mphMostly Cloudy
9:50 AM42.8 °F41.0 °F93 %29.44 in3.1 miSE (140°)13.8 mphMostly Cloudy
10:50 AM42.8 °F41.0 °F93 %29.42 in5.0 miSE (140°)16.1 mphMostly Cloudy
11:50 AM42.0 °F39.0 °F87 %29.39 in4.0 miSE (140°)19.6 mphScattered Clouds
11:50 AM42.8 °F39.2 °F87 %29.36 in4.3 miSE (140°)19.6 mphMostly Cloudy
12:50 PM41.0 °F39.2 °F93 %29.33 in4.3 miSE (130°)19.6 mphMostly Cloudy
1:50 PM41.0 °F39.2 °F93 %29.27 in4.3 miESE (120°)17.3 mphScattered Clouds
2:50 PM41.0 °F39.0 °F92 %29.26 in3.0 miESE (120°)20.7 mphMostly Cloudy
2:50 PM41.0 °F39.2 °F93 %29.24 in3.1 miESE (120°)20.7 mphMostly Cloudy
3:50 PM41.0 °F39.2 °F93 %29.21 in6.2 miESE (110°)18.4 mphOvercast
4:50 PM41.0 °F39.2 °F93 %29.18 inESE (120°)23.0 mphMostly Cloudy
5:50 PM41.0 °F39.0 °F91 %29.22 in2.0 miESE (120°)16.1 mphMostly Cloudy
5:50 PM41.0 °F39.2 °F93 %29.18 inESE (120°)16.1 mphMostly Cloudy
6:50 PM41.0 °F39.2 °F93 %29.18 in3.1 miESE (120°)6.9 mphMostly Cloudy
7:50 PM41.0 °F39.2 °F93 %29.18 in6.2 miWSW (240°)3.5 mphScattered Clouds
8:50 PM41.0 °F38.0 °F84 %29.23 in22.0 miWest (260°)9.2 mphMostly Cloudy
8:50 PM41.0 °F37.4 °F87 %29.21 in6.2 miWest (260°)9.2 mphMostly Cloudy
9:50 PM41.0 °F37.4 °F87 %29.21 in6.2 miWNW (290°)5.8 mphOvercast
10:50 PM41.0 °F37.4 °F87 %29.24 in6.2 miWest (260°)6.9 mphMostly Cloudy
11:50 PM40.0 °F36.0 °F81 %29.27 in22.0 miWest (280°)9.2 mphMostly Cloudy
11:50 PM39.2 °F35.6 °F87 %29.24 in6.2 miWest (280°)9.2 mphMostly Cloudy
Hourly data recorded from EGVP, located miles away from Winchester, England







STORIES FROM OUR PARTNERS